This is the latest recevied weather packets stored in our database for station/object K3FAZ. If no packets are shown the sender has not sent any weather packets the latest 10 day(s).
| Time | Temp. | Humidity | Pressure | Rain* | Wind** | Luminosity | Snow |
|---|---|---|---|---|---|---|---|
| 1777724062 | 2.22° C | 99% | 1018.5 hPa | 0 mm | - | 77 W/m² | - |
| 1777723760 | 2.22° C | 99% | 1018.6 hPa | 0 mm | - | 128 W/m² | - |
| 1777723456 | 2.22° C | 99% | 1018.5 hPa | 0 mm | - | 90 W/m² | - |
| 1777723154 | 2.22° C | 99% | 1018.6 hPa | 0 mm | - | 81 W/m² | - |
| 1777722851 | 2.22° C | 99% | 1018.8 hPa | 0 mm | - | 76 W/m² | - |
| 1777722546 | 2.22° C | 99% | 1018.6 hPa | 0 mm | - | 47 W/m² | - |
| 1777722244 | 2.22° C | 99% | 1018.5 hPa | 0 mm | - | 43 W/m² | - |
| 1777721941 | 2.22° C | 99% | 1018.8 hPa | 0 mm | - | 49 W/m² | - |
| 1777721638 | 2.22° C | 99% | 1018.8 hPa | 0 mm | - | 42 W/m² | - |
| 1777721336 | 1.67° C | 99% | 1018.6 hPa | 0 mm | - | 37 W/m² | - |
| 1777721034 | 1.67° C | 99% | 1018.8 hPa | 0 mm | - | 33 W/m² | - |
| 1777720731 | 1.67° C | 99% | 1018.7 hPa | 0 mm | - | 31 W/m² | - |
| 1777720428 | 1.67° C | 99% | 1018.7 hPa | 0 mm | - | 31 W/m² | - |
| 1777720126 | 1.67° C | 99% | 1018.6 hPa | 0 mm | - | 41 W/m² | - |
| 1777719824 | 1.67° C | 99% | 1018.8 hPa | 0 mm | - | 39 W/m² | - |
| 1777719521 | 1.67° C | 99% | 1018.7 hPa | 0 mm | - | 23 W/m² | - |
| 1777719218 | 1.11° C | 99% | 1018.7 hPa | 0 mm | - | 15 W/m² | - |
| 1777718916 | 1.11° C | 99% | 1018.6 hPa | 0 mm | - | 13 W/m² | - |
| 1777718613 | 1.11° C | 99% | 1018.6 hPa | 0 mm | - | 11 W/m² | - |
| 1777718310 | 1.11° C | 99% | 1018.6 hPa | 0 mm | - | 9 W/m² | - |
| 1777718007 | 1.11° C | 99% | 1018.7 hPa | 0 mm | - | 8 W/m² | - |
| 1777717704 | 1.11° C | 99% | 1018.6 hPa | 0 mm | - | 5 W/m² | - |
| 1777717401 | 1.11° C | 99% | 1018.6 hPa | 0 mm | - | 4 W/m² | - |
| 1777717099 | 0.56° C | 99% | 1018.5 hPa | 0 mm | - | 2 W/m² | - |
| 1777716796 | 0.56° C | 99% | 1018.6 hPa | 0 mm | - | 1 W/m² | - |
* Rain latest hour (hover to see other rain measurements)
** Current wind speed in m/s (hover to see current wind gust speed)